sat.trackr.live / text

‹ back to catalog

STARLINK-37062

NORAD 68087 · 2026-042U

PAYLOAD ACTIVE UNKNOWN

§ Identity

Operator
Country
US
Launch date
2026-03-04
Launch site
AFETR
Launch vehicle
Mass (kg)
RCS (m²)

Purposes: comms

External: N2YO · Heavens-Above · Gunter

§ Orbital elements

Epoch: 2026-09-19T06:14:29.070816Z

Period
93.85 min
Inclination
53.1604°
Eccentricity
0.0001870
Mean motion
15.34406895 rev/d
Perigee alt
461.4 km
Apogee alt
464.0 km
Semi-major
6,840.8 km
B*
6.0043e-4
RAAN
355.1918°
Arg perigee
97.7339°
Mean anomaly
262.3876°
Rev number
3,200

§ Raw data

STARLINK-370621 68087U 26042U   26262.26005869  .00019969  00000+0  60043-3 0  99962 68087  53.1604 355.1918 0001870  97.7339 262.3876 15.34406895 32000

JSON: /api/v1/satellites/68087 · /tle

For live sub-satellite position, see the globe view (requires WebGL).

§ Visibility from observer

Set your observer location to see the next 7 days of passes ≥ 10°. The values pass through the URL so the page stays shareable.

No JS? Fill the form by hand. The geolocation button needs JavaScript.